STARLINK-32352, 61847

Orbit data source: Space-Track

STARLINK-32352, 61847 is a payload satellite owned by SpaceX/Seattle (US) in LEO that was launched on Thu, 07 Nov 2024 UTC via an FALCON 9 launch vehicle from the Air Force Eastern Test Range (AFETR). Payload-class satellites include a variety of spacecraft equipped with specific instruments for various scientific and technological missions. These include communications satellites like Starlink; space stations such as the ISS; scientific satellites like the Hubble; Earth observation satellites from companies like Planet Labs, Umbra, and HawkEye 360; GPS; miniature CubeSats for education and research; and military/defense satellites.

Loading next visibility...
Identifier
61847, 2024-202C
Orbit
LEO
Country
Flag of USUS
Related business
Manufacturer
SpaceX/Seattle
Mission
Operational Commercial Communications
Bus & Motor
STARLINK V2M, Unknown motor
Mass
730 kg wet, ~700 kg dry
Launch date (UTC)
2024-11-07 (1 year ago)
Launch vehicle
FALCON 9
Launch site
Air Force Eastern Test Range (AFETR)
Object type
Payload
Rocket body
Debris
Shape & HBR
Box + 2 Pan, 17.7 m
Radar Cross Section
33.884 m², Large (>1 m²)

Expand to show TLE details & history
Last TLE update: 13 hours ago

TLE from 13 hours ago
0 STARLINK-32352
1 61847U 24202C   26038.05857705 -.00001204  00000-0 -34219-4 0  9994
2 61847  43.0032  39.6741 0001389 175.4688 184.6177 15.27584316 70788
Epoch: 2026-02-07T01:24Z
TLE epoch observation values (Epoch: 2026-02-07T01:24:21.057Z)
Latitude
0.00003°
Longitude
-118.60115°
Altitude
483.762 km
Speed
7.625 km/s
True Right ascension
02h 38m 41s
True Declination
0° 00' 00"
Sunlit
Object was in daylight at epoch
Visualization orbit readout
Latitude
Unknown
Longitude
Unknown
Altitude
Unknown
Speed
Unknown
Apparent Right ascension
Unknown
Apparent Declination
Unknown
Sunlit
N/A
Visualization observer readout
Local Sidereal Time
16:20:34
Azimuth
Unknown
Elevation
Unknown
Doppler factor
Unknown
Orbital elements
Apogee altitude
485.934 km
Perigee altitude
484.028 km
Semi-major axis
6,863.118 km
Eccentricity
0.00014
Inclination
43.0032°
RAAN
39.6741°
Arg. of periapsis
175.4688°
True anomaly
184.61642°
Mean anomaly
184.6177°
Eccentric anomaly
184.61706°
Mean motion
3.81734 °/min
Orbital period
94.31 mins
BSTAR
-0.000034219
Loading maneuver chart data...
Computing Atmospheric mass density...
Loading historical data...
Loading historical data...
Loading historical data...
Loading historical data...
Loading historical data...
Loading historical data...
Loading historical data...

Documentation

Showing up to 5 results
|